Flag for Albania Weather past 2 weeks in Durrës, Albania

Now
57 °F

Light rain. Broken clouds.


Feels Like: 56 °F
Forecast: 55 / 65 °F
Wind: 6 mph from Northwest

Location: Tirana Airport

Current Time: Oct 24, 2014 at 2:09:35 PM

Latest Report: Oct 24, 2014 at 1:20 PM


Visibility: N/A

Pressure: 29.71 "Hg

Humidity: 55%

Dew point: 41 °F

Location of DurrësLocation

Historic Weather in Durrës — Graph

°F

Durrës temperature yesterday

Maximum temperature yesterday: 55 °F (at 12:20 PM)
Minimum temperature yesterday: 45 °F (at 10:50 PM)
Average temperature yesterday: 52 °F

Past Weeks' High & Low Weather Summary

 TemperatureHumidityPressure
High82 °F (Oct 9, 1:20 PM)94% (Oct 9, 10:20 PM)30.27 "Hg (Oct 9, 10:20 PM)
Low45 °F (Oct 23, 10:50 PM)24% (Oct 19, 1:20 PM)29.53 "Hg (Oct 22, 3:20 PM)
Average65 °F76%30.00 "Hg
* Reported Oct 9 12:20 PM — Oct 24 12:20 PM, Durrës, Weather by CustomWeather, © 2014

Note: Actual official high and low records may vary slightly from our data, if they occured in-between our weather recording intervals... More about our weather records

Advertising

Durrës weather history for previous 24 hours

 ConditionsComfort  
Time TempWeatherWind HumidityBarometerVisibility
12:20 PM
Oct 24
59 °FPartly sunny.7 mph63%29.71 "HgN/A
11:50 AM57 °FBroken clouds.7 mph63%29.71 "HgN/A
11:20 AM55 °FBroken clouds.3 mph67%29.71 "HgN/A
10:50 AM52 °FPartly sunny.2 mph82%29.74 "HgN/A
10:20 AM52 °FPartly sunny.2 mph82%29.74 "HgN/A
9:50 AM52 °FBroken clouds.No wind77%29.71 "HgN/A
9:20 AM50 °FScattered clouds.No wind76%29.71 "HgN/A
8:50 AM48 °FBroken clouds.No wind87%29.71 "HgN/A
8:20 AM48 °FBroken clouds.No wind87%29.71 "HgN/A
7:50 AM46 °FPartly cloudy.2 mph93%29.71 "HgN/A
7:20 AM46 °FPartly cloudy.No wind93%29.71 "HgN/A
6:50 AM46 °FPassing clouds.1 mph93%29.68 "HgN/A
6:20 AM46 °FPassing clouds.2 mph87%29.68 "HgN/A
5:20 AM46 °FPassing clouds.1 mph93%29.71 "HgN/A
4:50 AM46 °FPartly cloudy.3 mph93%29.71 "HgN/A
4:20 AM46 °FPartly cloudy.3 mph93%29.71 "HgN/A
3:50 AM46 °FPartly cloudy.1 mph93%29.71 "HgN/A
3:20 AM46 °FPassing clouds.3 mph87%29.71 "HgN/A
2:50 AM46 °FPassing clouds.1 mph87%29.71 "HgN/A
2:20 AM46 °FPartly cloudy.3 mph93%29.74 "HgN/A
1:50 AM46 °FPartly cloudy.6 mph93%29.74 "HgN/A
1:20 AM46 °FPassing clouds.1 mph87%29.74 "HgN/A
12:50 AM48 °FPassing clouds.2 mph82%29.74 "HgN/A
12:20 AM48 °FPassing clouds.2 mph87%29.74 "HgN/A
11:50 PM
Oct 23
48 °FPassing clouds.5 mph87%29.74 "HgN/A
11:20 PM46 °FPassing clouds.6 mph87%29.74 "HgN/A
10:50 PM45 °FPassing clouds.3 mph93%29.74 "HgN/A
10:20 PM48 °FPassing clouds.3 mph87%29.74 "HgN/A
9:50 PM48 °FPassing clouds.2 mph94%29.74 "HgN/A
9:20 PM48 °FPassing clouds.3 mph87%29.74 "HgN/A
8:50 PM48 °FPassing clouds.No wind87%29.74 "HgN/A
8:20 PM50 °FPassing clouds.3 mph82%29.74 "HgN/A
7:50 PM50 °FLight rain. Passing clouds.5 mph88%29.74 "HgN/A
7:20 PM48 °FRain. Mostly cloudy.5 mph87%29.74 "HgN/A
6:50 PM52 °FLight rain. Passing clouds.7 mph72%29.74 "HgN/A
6:20 PM52 °FThundershowers. Broken clouds.3 mph77%29.71 "HgN/A
5:50 PM52 °FThundershowers. Scattered clouds.No wind72%29.68 "HgN/A
5:20 PM54 °FScattered clouds.2 mph63%29.68 "HgN/A
4:50 PM54 °FScattered clouds.5 mph58%29.68 "HgN/A
4:20 PM55 °FScattered clouds.6 mph55%29.68 "HgN/A
3:50 PM55 °FScattered clouds.3 mph63%29.65 "HgN/A
3:20 PM55 °FThundershowers. Scattered clouds.6 mph67%29.65 "HgN/A
2:50 PM55 °FThundershowers. Scattered clouds.6 mph63%29.65 "HgN/A
2:20 PM55 °FScattered clouds.6 mph63%29.65 "HgN/A
Weather by CustomWeather, © 2014

See weather overviewHow to use our weather pages